Parsons, KS

7:32 AM CST on December 06, 2019 (GMT -0600)
Tri-City

Weather History for KPPF - November, 2019

Change the Weather History Date:

Sunday, November 17, 2019

  Actual Average Record
Temperature  
Mean Temperature 47 °F -  
Max Temperature 61 °F 56 °F 78 °F (2017)
Min Temperature 30 °F 37 °F 7 °F (1959)
Degree Days  
Heating Degree Days 18    
Moisture  
Dew Point 33 °F    
Average Humidity 62    
Maximum Humidity 92    
Minimum Humidity 39    
Precipitation  
Precipitation 0.00 in - - ()
Sea Level Pressure  
Sea Level Pressure 30.02 in    
Wind  
Wind Speed 5 mph ()    
Max Wind Speed 14 mph    
Max Gust Speed 22 mph    
Visibility 10.0 miles    
Events      
Averages and records for this station are not official NWS values.
T = Trace of Precipitation, MM = Missing Value Source: Averaged Metar Reports

Daily Weather History Graph

Daily Weather History Graph

Search for Another Location

Airport or City:

Astronomy

Nov. 17, 2019 Rise Set
Actual Time 7:03 AM CST 5:10 PM CST
Civil Twilight 6:35 AM CST 5:38 PM CST
Nautical Twilight 6:03 AM CST 6:09 PM CST
Astronomical Twilight 5:32 AM CST 6:40 PM CST
Moon 9:49 PM CST (11/17) 11:47 AM CST (11/17)
Length of Visible Light 11h 03m
Length of Day
10h 07m
Waning Gibbous, 73% of the Moon is Illuminated
Nov 17
Waning Gibbous
Nov 19
Last Quarter
Nov 26
New
Dec 4
First Quarter
Dec 11
Full

Hourly Weather History & Observations

Time (CST) Temp. Windchill Dew Point Humidity Pressure Visibility Wind Dir Wind Speed Gust Speed Precip Events Conditions
12:52 AM 44.1 °F 41.5 °F 30.0 °F 58% 30.07 in 10.0 mi SE 4.6 mph - N/A   Clear
1:52 AM 46.0 °F 43.1 °F 28.9 °F 51% 30.06 in 10.0 mi South 5.8 mph - N/A   Clear
2:52 AM 46.0 °F 43.1 °F 30.0 °F 54% 30.05 in 10.0 mi South 5.8 mph - N/A   Clear
3:52 AM 44.1 °F 42.5 °F 30.9 °F 60% 30.05 in 10.0 mi South 3.5 mph - N/A   Clear
4:52 AM 43.0 °F 41.3 °F 30.9 °F 62% 30.04 in 10.0 mi South 3.5 mph - N/A   Clear
5:52 AM 43.0 °F 41.3 °F 32.0 °F 65% 30.04 in 10.0 mi SSW 3.5 mph - N/A   Mostly Cloudy
6:52 AM 44.1 °F 40.8 °F 33.1 °F 65% 30.06 in 10.0 mi SSW 5.8 mph - 0.00 in   Overcast
7:52 AM 44.1 °F 41.5 °F 33.1 °F 65% 30.05 in 10.0 mi SSW 4.6 mph - N/A   Overcast
9:52 AM 48.0 °F - 35.1 °F 61% 30.05 in 10.0 mi WNW 4.6 mph - 0.00 in   Overcast
10:52 AM 55.9 °F - 39.9 °F 55% 30.04 in 10.0 mi North 9.2 mph - N/A   Clear
11:52 AM 57.9 °F - 41.0 °F 53% 30.02 in 10.0 mi NNW 11.5 mph - N/A   Clear
12:52 PM 59.0 °F - 39.0 °F 48% 30.00 in 10.0 mi NW 13.8 mph 21.9 mph N/A   Clear
1:52 PM 60.1 °F - 37.9 °F 44% 29.98 in 10.0 mi NNW 10.4 mph - N/A   Clear
2:52 PM 61.0 °F - 36.0 °F 39% 29.98 in 10.0 mi North 12.7 mph - N/A   Clear
3:52 PM 59.0 °F - 36.0 °F 42% 29.98 in 10.0 mi NW 10.4 mph - N/A   Clear
4:52 PM 54.0 °F - 34.0 °F 47% 29.98 in 10.0 mi NNW 6.9 mph - N/A   Clear
5:52 PM 42.1 °F 40.2 °F 34.0 °F 73% 30.00 in 10.0 mi North 3.5 mph - N/A   Clear
6:52 PM 41.0 °F 38.0 °F 33.1 °F 73% 30.01 in 10.0 mi NNW 4.6 mph - N/A   Clear
8:52 PM 35.1 °F - 32.0 °F 89% 30.01 in 10.0 mi Calm Calm - N/A   Clear
9:52 PM 34.0 °F - 32.0 °F 92% 30.01 in 10.0 mi Calm Calm - N/A   Clear
10:52 PM 33.1 °F - 30.0 °F 89% 29.99 in 10.0 mi Calm Calm - N/A   Clear
11:52 PM 30.9 °F - 28.0 °F 89% 29.99 in 10.0 mi Calm Calm - N/A   Clear